Location: Hradec Kralove
(50.2170°N, 15.8330°E)
Time: 10:22:39
(UTC+01:00)

ISS - Pass Details

Date: 22 February 2026
Orbit: 416 x 426 km, 51.6° (Epoch: 9 March)

Event Time Altitude Azimuth Distance (km) Brightness Sun altitude
Exits shadow 05:01:18 66° 304° (NW) 458 -3.9 -18.8°
Maximum altitude 05:01:37 73° 352° (N) 440 -3.8 -18.8°
Drops below altitude 10° 05:04:58 10° 77° (ENE) 1,495 0.3 -18.2°
Sets 05:07:04 0° 79° (E) 2,358 1.8 -17.9°
